Find Starlink 1570

NORAD ID: 46059 Int'l Des: 2020-055 Owner: SPXS Country: US Constellation: starlink operational
LEOCIRCULAR

实时位置

正在加载3D地球...

关于 Starlink 1570

正在加载描述...

即将过境

Passes for default location (London). Set your location on the main map for personalized predictions.

高度历史

Loading altitude history...

两行轨道根数

1 46059U 20055AJ 26126.62212618 -.00004304 00000-0 -12709-3 0 9996
2 46059 53.1580 204.5545 0000965 59.7347 300.3750 15.31680586317909
Epoch: May 6, 2026 • Age: 15 hours

当前状态

高度 488.9 km
速度 7.62 km/s
星下点 -50.57°S, 129.49°E
发射日期 Aug 7, 2020
运行时间 5.7 years
类型 internet

技术详情

分类 Payload
质量 260.00 kg
干质量 248.00 kg
总质量 260.00 kg
长度 0.20 m
直径 2.80 m
跨度 9.00 m
形状 Box + pan
制造商 SPXS
平台类型 Starlink
阶段状态 In Orbit
所有者/国家 SPXS/US

Most Searched